Regional Weather Roundup
Issued by NWS Burlington, VT

Home | Current Version | Previous Version | Text Only | Print | Product List | Glossary On
Versions: 1 2 3 4 5 6 7 8 9 10 11 12 13 14 15 16 17 18 19 20 21 22 23 24 25 26 27 28 29 30 31 32 33 34 35 36 37 38 39 40 41 42 43 44 45 46 47 48 49 50
000
ASUS41 KBTV 220330
RWRBTV
VERMONT REGIONAL WEATHER ROUNDUP
NATIONAL WEATHER SERVICE BURLINGTON VT
1000 PM EST SUN JAN 21 2018

NOTE: "FAIR" INDICATES FEW OR NO CLOUDS BELOW 12,000 FEET WITH NO
SIGNIFICANT WEATHER AND/OR OBSTRUCTIONS TO VISIBILITY.

* THESE REPORTS ARE NOT UNDER NWS QUALITY CONTROL AND/OR DO NOT
  REPORT WEATHER SUCH AS PRECIPITATION AND FOG.

VTZ001>019-220400-
_____VERMONT_____


CITY           SKY/WX    TMP DP  RH WIND       PRES   REMARKS
BURLINGTON     CLOUDY    31  24  75 NW3       30.17S
MONTPELIER     CLOUDY    32  30  92 CALM      30.17R
MORRISVILLE    CLOUDY    32  25  75 N7        30.16R WCI  26
ST. JOHNSBURY*   N/A     33  28  81 MISG      30.14S
LYNDONVILLE*   CLOUDY    31  25  79 CALM      30.15S
MIDDLEBURY*    FAIR      30  28  92 CALM      30.16S
RUTLAND*       MOCLDY    31  29  92 CALM      30.16R
SPRINGFIELD    FAIR      29  27  92 CALM      30.17R
HIGHGATE*      CLOUDY    27  21  77 N5        30.19S WCI  22
NEWPORT*       CLOUDY    28  23  82 N7        30.17S WCI  20
BENNINGTON     MOCLDY    28  25  88 CALM      30.15S FOG
SUTTON*          N/A      0 N/A N/A MISG        N/A
ISLAND POND*     N/A     30 N/A N/A CALM        N/A
GALLUP MILLS*    N/A     30 N/A N/A MISG        N/A
UNION VILLAGE*   N/A     28 N/A N/A MISG        N/A

_____LAKE CHAMPLAIN_____


CITY           SKY/WX    TMP DP  RH WIND       PRES   REMARKS
BURTON ISLAND*   N/A     30  27  86 N5          N/A  WCI  25
COLCHESTER RF*   N/A     32  27  80 N12         N/A  WCI  23
DIAMOND ISL*     N/A     32  28  86 N12         N/A  WCI  23

$$

NYZ007-026>031-035-052-083-087-220400-
_____NORTHERN NEW YORK_____


CITY           SKY/WX    TMP DP  RH WIND       PRES   REMARKS
PLATTSBURGH    CLOUDY    30  23  75 N7        30.19R WCI  23
SARANAC LAKE   CLOUDY    31  31 100 CALM      30.08R
MASSENA        CLOUDY    30  27  88 NE9       30.18R WCI  22
OGDENSBURG*    CLOUDY    33  28  82 NE5       30.14F WCI  29
POTSDAM*       CLOUDY    32  27  80 E5        30.14R WCI  27
STARK FALLS*     N/A     32 N/A N/A SE6         N/A  WCI  26
WATERTOWN      CLOUDY    32  31  96 CALM      30.12R FOG
FT DRUM        CLOUDY    36  30  80 SE8       30.10  WCI  29
ALBANY         CLOUDY    32  27  81 CALM      30.17F
GLENS FALLS    FAIR      26  25  96 CALM      30.17S FOG

$$
NHZ002-005-011-220400-
_____NEW HAMPSHIRE_____


CITY           SKY/WX    TMP DP  RH WIND       PRES   REMARKS
LEBANON        MOCLDY    30  27  88 CALM      30.16R
KEENE          FOG       25  21  86 CALM      30.18S VSB 1
MT WASHINGTON  FOG       16  16 100 W28         N/A  VSB 1/16WCI  -4
PLYMOUTH       FAIR      27  26  96 CALM      30.17S
WHITEFIELD     CLOUDY    31  28  89 CALM      30.13S

$$

_____REGIONAL QUEBEC LOCATIONS_____


CITY           SKY/WX    TMP DP  RH WIND       PRES   REMARKS
MONTREAL       FLURRIES  23  14  68 NE14      30.23R WCI  11
QUEBEC CITY    MOCLDY    14   1  57 N5        30.27R WCI   6
SHERBROOKE     CLOUDY    23  12  63 NE7       30.18S WCI  15

_____REGIONAL ONTARIO LOCATIONS_____


CITY           SKY/WX    TMP DP  RH WIND       PRES   REMARKS
OTTAWA         LGT SNOW  28  25  86 NE10      30.16R WCI  19

______KEY______
VSB  - VISIBILITY IN MILES
WCI  - WIND CHILL INDEX
HX   - HEAT INDEX
$$
NNNN



USA.gov is the U.S. government's official web portal to all federal, state and local government web resources and services.